Regional Weather Roundup
Issued by NWS

Home | Current Version | Previous Version | Graphics & Text | Print | Product List | Glossary On
Versions: 1 2 3 4 5 6 7 8 9 10 11 12 13 14 15 16 17 18 19 20 21 22 23 24 25 26 27 28 29 30 31 32 33 34 35 36 37 38 39 40 41 42 43 44 45 46 47 48 49 50
000
ASUS45 KPSR 300500
RWRAZ

ARIZONA HOURLY REGIONAL WEATHER ROUNDUP
NATIONAL WEATHER SERVICE PHOENIX AZ
1000 PM MST SAT AUG 29 2015

NOTE: FAIR INDICATES FEW OR NO CLOUDS BELOW 12,000 FEET WITH NO
SIGNIFICANT WEATHER AND/OR OBSTRUCTIONS TO VISIBILITY.

AZZ001>003-036-300600-
NORTHWEST ARIZONA

CITY           SKY/WX    TMP DP  RH WIND       PRES   REMARKS
KINGMAN        PTCLDY    85  51  31 SE10      29.98R
$$

AZZ004>008-015-016-018-300600-
NORTH CENTRAL ARIZONA

CITY           SKY/WX    TMP DP  RH WIND       PRES   REMARKS
GRAND CANYON   PTCLDY    56  45  66 CALM      30.27F
WILLIAMS       CLEAR     61  50  67 S8        30.34S
PRESCOTT       PTCLDY    69  57  65 S8        30.16R
FLAGSTAFF      NOT AVBL
PAYSON         PTCLDY    73  52  46 E5        30.19R
PAGE           PTCLDY    87  45  23 W6        30.02S
$$

AZZ009>014-017-300600-
NORTHEAST ARIZONA

CITY           SKY/WX    TMP DP  RH WIND       PRES   REMARKS
WINSLOW        NOT AVBL
SAINT JOHNS    PTCLDY    72  48  42 SE9       30.22F
WINDOW ROCK    CLOUDY    71  47  42 S12       30.30S
SHOW LOW       CLEAR     64  46  52 S10       30.30R
$$

AZZ023-300600-
GREATER PHOENIX AREA

CITY           SKY/WX    TMP DP  RH WIND       PRES   REMARKS
PHOENIX        CLOUDY    87  68  52 S8        29.83F
DEER VALLEY    CLOUDY    90  61  37 SE8       29.86F
SCOTTSDALE     CLOUDY    84  68  58 CALM      29.88F
$$

AZZ027-028-300600-
SOUTHWEST MARICOPA COUNTY AND PINAL COUNTY

CITY           SKY/WX    TMP DP  RH WIND       PRES   REMARKS
CASA GRANDE    CLOUDY    90  57  33 CALM      29.87F
GILA BEND      FAIR      98  59  27 SE21      29.78R
$$

AZZ503-504-507>509-300600-
SOUTHEAST ARIZONA

CITY           SKY/WX    TMP DP  RH WIND       PRES   REMARKS
TUCSON         CLOUDY    84  58  40 SE7       30.03S
NOGALES        MOCLDY    73  62  68 E5        30.10R
SIERRA VISTA   MOCLDY    74  58  57 S8        30.20S
SAFFORD        CLEAR     79  57  46 E10       30.04S
$$

AZZ020-021-025-026-031-300600-
SOUTHWEST ARIZONA

CITY           SKY/WX    TMP DP  RH WIND       PRES   REMARKS
YUMA           PTCLDY    97  63  32 S12       29.73R
$$

CAZ031-033-041-043-047-048-061-300600-
SOUTHERN CALIFORNIA

CITY           SKY/WX    TMP DP  RH WIND       PRES   REMARKS
DOWNTOWN L.A.  CLEAR     78  64  61 CALM      29.84R
L.A. AIRPORT   CLEAR     75  66  73 W17       29.85R
SAN DIEGO      CLEAR     76  68  76 NW6       29.89R
BURBANK        CLEAR     82  64  54 E5        29.86R
ONTARIO        CLEAR     82  56  40 SW9       29.88S
RIVERSIDE      CLEAR     83  59  44 VRB3      29.88R
PALM SPRINGS   CLEAR     99  49  18 NW12      29.75R
EL CENTRO NAS  CLEAR     97  49  19 W10       29.72R
IMPERIAL       CLEAR     97  52  21 W13       29.70R
BLYTHE         CLEAR    104  59  22 S14       29.72R HX 104
$$

NVZ020-UTZ003-300600-
SOUTHERN NEVADA-UTAH

CITY           SKY/WX    TMP DP  RH WIND       PRES   REMARKS
LAS VEGAS      NOT AVBL
SALT LAKE CITY MOCLDY    85  45  24 S16       29.88S
$$

NMZ009-TXZ055-300600-
NEW MEXICO-WEST TEXAS

CITY           SKY/WX    TMP DP  RH WIND       PRES   REMARKS
ALBUQUERQUE    PTCLDY    75  47  36 E10       30.23R
EL PASO        PTCLDY    82  53  36 E13       30.11S
$$


........................KEY........................
SKY/WX - SKY CONDITION/WEATHER
TMP    - TEMPERATURE IN FAHRENHEIT
DP     - DEW POINT IN FAHRENHEIT
RH     - RELATIVE HUMIDITY IN PERCENT
WIND   - DIRECTION AND SPEED IN MILES PER HOUR (MPH)
VRB    - VARIABLE WIND DIRECTION
PRES   - MEAN SEA LEVEL PRESSURE IN INCHES OF MERCURY
         F - FALLING PRESSURE   R - RISING PRESSURE
         S - STEADY PRESSURE
VSB    - VISIBILITY IN MILES
HX     - HEAT INDEX IN FAHRENHEIT
WCI    - WIND CHILL INDEX IN FAHRENHEIT
TC     - TEMPERATURE IN CELSIUS WHICH IS ALSO KNOWN AS
         TEMPERATURE IN CENTIGRADE
AFB    - AIR FORCE BASE
         LUKE AFB IS LUKE AIR FORCE BASE
         DAVIS-MONTHAN IS DAVIS-MONTHAN AIR FORCE BASE
NAS    - NAVAL AIR STATION
         EL CENTRO NAS IS EL CENTRO NAVAL AIR STATION
N/A    - NOT AVAILABLE



USA.gov is the U.S. government's official web portal to all federal, state and local government web resources and services.